Regional Weather Roundup
Issued by NWS Northern Indiana

Home | Current Version | Previous Version | Text Only | Print | Product List | Glossary On
Versions: 1 2 3 4 5 6 7 8 9 10 11 12 13 14 15 16 17 18 19 20 21 22 23 24 25 26 27 28 29 30 31 32 33 34 35 36 37 38 39 40 41 42 43 44 45 46 47 48 49 50
000
ASUS43 KIWX 020100
RWRIWX

KIWX WEATHER ROUNDUP
NATIONAL WEATHER SERVICE NORTHERN INDIANA
900 PM EDT SAT AUG 01 2015

NOTE: "FAIR" INDICATES FEW OR NO CLOUDS BELOW 12,000 FEET WITH NO
SIGNIFICANT WEATHER AND/OR OBSTRUCTIONS TO VISIBILITY.

* THESE STATIONS ARE NOT UNDER NWS QUALITY CONTROL. THEY ALSO MAY NOT
  REPORT WEATHER SUCH AS PRECIPITATION OR FOG.

INZ001>027-020200-
NORTHERN INDIANA

CITY           SKY/WX    TMP DP  RH WIND       PRES   REMARKS
GARY*          MOCLDY    82  61  47 W14G26    29.90S
SOUTH BEND     MOCLDY    79  61  53 SW8       29.91S
GOSHEN         PTCLDY    74  60  61 S6        29.91F
MONTICELLO*    MOCLDY    75  64  67 SW5       29.94S
ANGOLA*        PTCLDY    72  61  68 CALM      29.93S
FORT WAYNE     MOCLDY    74  61  63 SW7       29.94S

$$
INZ028>050-020200-
CENTRAL INDIANA

CITY           SKY/WX    TMP DP  RH WIND       PRES   REMARKS
LAFAYETTE      MOCLDY    74  64  71 SW3       29.95S
KOKOMO*        PTCLDY    75  57  53 SW9       29.96S
MUNCIE*        CLEAR     73  57  57 W6        29.97R
INDIANAPOLIS   PTCLDY    75  57  53 W8        29.97S

$$
MIZ043>046-050>051-056>058-064>065-071>073-077>080-020200-
SOUTHWEST LOWER MICHIGAN

CITY           SKY/WX    TMP DP  RH WIND       PRES   REMARKS
BATTLE CREEK   CLEAR     72  57  59 SW6       29.91F
BENTON HARBOR  PTCLDY    73  60  63 CALM      29.89S
COLDWATER*     MOCLDY    71  57  61 CALM      29.92S
HILLSDALE*     MOCLDY    73  55  53 W5        29.93S
HOLLAND        PTCLDY    71  58  63 S3        29.90S
GRAND RAPIDS   PTCLDY    76  51  41 W7        29.89F
KALAMAZOO      PTCLDY    73  57  57 SW3       29.91S
STURGIS*       MOCLDY    72  63  73 CALM      29.92S
THREE RIVERS*  MOCLDY    74  60  61 CALM      29.92R

$$
OHZ001>008-015>018-024>025-020200-
NORTHWEST OHIO

CITY           SKY/WX    TMP DP  RH WIND       PRES   REMARKS
DEFIANCE       PTCLDY    75  55  49 CALM      29.93R
FINDLAY        CLEAR     73  56  54 W7        29.92R
TOLEDO EXPRESS CLEAR     74  55  51 W8        29.91R
TOLEDO METCALF CLEAR     76  53  44 W9        29.91R
LIMA           CLOUDY    75  55  49 W7        29.95R

$$
AND FOR LAKE MICHIGAN COASTAL AND OPEN LAKE BUOY OBSERVATIONS

STATION/POSITION TEMP    WIND        PRES    VSBY  WAVE
                 AIR SEA DIR/SP/G                  HT/PER
                 (F)     (DEG/KT/KT) (MB)    (MI)  (FT/S)
CALUMET HARBOR    83     230/ 10/ 17   N/A
MICHIGAN CITY     79     220/  7/  8   N/A
BURNS HARBOR      83     230/ 12/ 17 1012.9S
SAINT JOSEPH      81     200/  2/  3 1013.2F
4 MI NW BRIDGMAN  77 75  190/  4/  4   N/A           1/ 4
MICHIGAN CITY     79 75  240/  6/  8   N/A           1

$$
&&



USA.gov is the U.S. government's official web portal to all federal, state and local government web resources and services.